�N����,����,�~����,�C��,���x,�C��,����,���ϕ���,�ő�u�ԕ���,�ő厞����,���˗�,�I�_���x,�n�����x,�ő啗���N��,DTYPE
"19/03/30","00:10",0.0,8.2,79.8,1009.5,304.1,1.3,1.7,305.5,0.00,5.0,10.7,"00:04:32",1
"19/03/30","00:20",0.0,8.4,78.8,1009.5,311.3,1.3,2.4,323.4,0.00,5.0,10.9,"00:11:52",1
"19/03/30","00:30",0.0,8.7,79.1,1009.5,309.6,1.6,2.5,316.4,0.00,5.3,10.8,"00:25:36",1
"19/03/30","00:40",0.0,8.7,79.6,1009.3,301.9,1.6,2.6,315.3,0.00,5.4,10.8,"00:38:32",1
"19/03/30","00:50",0.0,8.9,78.8,1009.5,307.3,1.5,2.2,320.4,0.00,5.5,10.6,"00:48:16",1
"19/03/30","01:00",0.0,8.9,78.2,1009.3,325.2,1.2,2.7,320.8,0.00,5.4,10.8,"00:56:32",1
"19/03/30","01:10",0.0,8.9,78.2,1009.5,305.6,1.6,2.2,315.6,0.00,5.4,10.7,"01:03:52",1
"19/03/30","01:20",0.0,8.7,79.2,1009.3,301.8,0.7,1.3,272.6,0.00,5.3,10.6,"01:10:56",1
"19/03/30","01:30",0.0,8.9,78.7,1009.0,317.3,1.0,2.4,328.5,0.00,5.4,10.8,"01:29:52",1
"19/03/30","01:40",0.0,8.6,80.1,1009.3,329.8,2.1,2.4,331.8,0.00,5.4,10.8,"01:36:16",1
"19/03/30","01:50",0.0,8.5,81.2,1009.0,317.6,2.2,2.6,322.9,0.00,5.5,10.7,"01:40:24",1
"19/03/30","02:00",0.0,8.4,81.7,1008.8,301.9,1.5,1.8,310.4,0.00,5.5,10.7,"01:57:12",1
"19/03/30","02:10",0.0,8.3,82.2,1008.8,294.1,1.2,1.4,284.4,0.00,5.5,10.7,"02:08:00",1
"19/03/30","02:20",0.0,8.7,81.6,1008.6,298.3,2.0,2.8,312.3,0.00,5.8,10.5,"02:18:00",1
"19/03/30","02:30",0.0,8.9,81.0,1008.6,303.5,1.7,2.2,314.6,0.00,5.9,10.5,"02:23:44",1
"19/03/30","02:40",0.0,9.0,80.5,1009.0,292.2,1.1,1.2,291.7,0.00,5.9,10.5,"02:33:52",1
"19/03/30","02:50",0.0,9.1,79.9,1008.8,315.2,1.5,1.9,319.3,0.00,5.9,10.6,"02:47:20",1
"19/03/30","03:00",0.0,9.1,79.5,1009.3,308.8,1.6,1.9,304.5,0.00,5.8,10.7,"02:54:16",1
"19/03/30","03:10",0.0,8.9,80.1,1008.8,306.6,1.2,1.6,307.3,0.00,5.7,10.6,"03:00:16",1
"19/03/30","03:20",0.0,8.8,79.6,1008.8,305.0,1.7,2.0,319.3,0.00,5.5,10.6,"03:16:56",1
"19/03/30","03:30",0.0,8.6,80.2,1008.3,312.0,1.2,1.8,321.4,0.00,5.4,10.4,"03:20:08",1
"19/03/30","03:40",0.0,8.4,81.4,1008.3,311.9,2.0,2.4,320.9,0.00,5.4,10.6,"03:38:48",1
"19/03/30","03:50",0.0,8.2,82.1,1008.3,317.6,1.8,2.4,322.5,0.00,5.4,10.7,"03:49:52",1
"19/03/30","04:00",0.0,8.0,82.9,1008.3,316.1,2.0,2.2,324.5,0.00,5.3,10.4,"03:50:08",1
"19/03/30","04:10",0.0,7.9,83.4,1008.1,320.3,1.8,2.5,332.2,0.00,5.3,10.5,"04:06:16",1
"19/03/30","04:20",0.0,7.8,83.8,1008.1,305.6,1.7,2.2,323.1,0.00,5.3,10.4,"04:10:08",1
"19/03/30","04:30",0.0,7.7,84.2,1008.1,296.4,1.5,2.1,310.2,0.00,5.2,10.5,"04:20:32",1
"19/03/30","04:40",0.0,7.6,84.6,1008.1,287.4,1.2,1.4,300.6,0.00,5.2,10.4,"04:36:48",1
"19/03/30","04:50",0.0,7.7,84.5,1008.1,295.7,1.7,2.2,317.2,0.00,5.3,10.4,"04:46:08",1
"19/03/30","05:00",0.0,7.8,84.3,1007.8,294.9,1.6,2.0,319.7,0.00,5.4,10.3,"04:56:56",1
"19/03/30","05:10",0.0,7.8,84.4,1008.1,303.0,1.1,2.0,314.0,0.00,5.4,10.4,"05:08:32",1
"19/03/30","05:20",0.0,7.7,85.0,1008.1,333.1,1.7,2.1,329.4,0.00,5.4,10.5,"05:11:04",1
"19/03/30","05:30",0.0,7.8,84.5,1007.8,324.9,2.1,2.5,329.3,0.00,5.4,10.2,"05:23:12",1
"19/03/30","05:40",0.0,7.9,85.3,1007.8,301.3,1.5,2.4,314.7,0.00,5.6,10.2,"05:39:52",1
"19/03/30","05:50",0.0,8.3,84.7,1007.6,322.0,2.2,3.4,328.0,0.00,5.9,10.2,"05:46:00",1
"19/03/30","06:00",0.0,8.4,84.4,1007.6,307.0,1.2,2.1,321.3,0.00,6.0,10.2,"05:50:08",1
"19/03/30","06:10",0.0,8.6,84.3,1007.4,311.8,0.8,1.3,315.7,0.00,6.1,10.4,"06:05:28",1
"19/03/30","06:20",0.0,8.8,83.7,1007.4,356.7,0.2,0.9,303.7,0.00,6.2,10.3,"06:16:08",1
"19/03/30","06:30",0.0,8.9,83.4,1007.6,298.8,1.3,2.0,312.1,0.00,6.3,10.2,"06:25:28",1
"19/03/30","06:40",0.0,9.0,83.3,1007.4,318.4,1.8,2.6,322.6,0.00,6.4,10.6,"06:30:02",1
"19/03/30","06:50",0.0,9.0,83.8,1007.8,323.9,2.0,2.4,326.4,0.00,6.5,10.4,"06:46:48",1
"19/03/30","07:00",0.0,8.9,83.9,1007.8,312.2,1.7,2.5,320.6,0.00,6.4,10.3,"06:52:24",1
"19/03/30","07:10",0.0,9.1,83.8,1007.8,282.1,1.2,1.3,270.7,0.00,6.5,10.3,"07:01:28",1
"19/03/30","07:20",0.0,9.3,83.4,1007.8,298.2,1.0,1.2,311.4,0.00,6.7,10.2,"07:10:16",1
"19/03/30","07:30",0.0,9.5,83.3,1007.6,292.1,1.2,1.7,313.9,0.01,6.9,10.3,"07:25:52",1
"19/03/30","07:40",0.0,9.7,82.8,1007.8,291.2,1.5,1.7,311.5,0.02,7.0,10.2,"07:39:04",1
"19/03/30","07:50",0.0,9.9,81.9,1008.1,317.4,1.8,2.5,323.1,0.04,7.0,10.5,"07:45:36",1
"19/03/30","08:00",0.0,10.3,81.1,1008.1,320.1,1.8,2.6,323.9,0.07,7.2,10.4,"07:54:32",1
"19/03/30","08:10",0.0,10.3,78.9,1008.1,315.8,1.7,2.0,313.0,0.04,6.8,10.6,"08:00:16",1
"19/03/30","08:20",0.0,10.5,76.6,1008.3,311.8,1.5,1.9,312.5,0.03,6.6,10.7,"08:11:12",1
"19/03/30","08:30",0.0,10.6,73.8,1008.1,309.4,1.6,1.9,316.9,0.02,6.2,10.8,"08:28:56",1
"19/03/30","08:40",0.0,10.8,71.5,1008.1,312.0,1.6,2.1,324.8,0.03,5.9,10.6,"08:32:08",1
"19/03/30","08:50",0.0,11.1,71.0,1008.3,294.7,1.2,1.7,323.7,0.04,6.1,10.7,"08:40:32",1
"19/03/30","09:00",0.0,11.2,70.7,1008.1,292.5,1.0,1.6,316.0,0.04,6.1,10.7,"08:56:48",1
"19/03/30","09:10",0.0,11.2,69.8,1008.3,279.5,0.8,1.2,320.4,0.05,5.9,10.9,"09:00:08",1
"19/03/30","09:20",0.0,11.4,68.0,1008.3,280.8,0.8,1.2,266.1,0.07,5.8,11.0,"09:19:52",1
"19/03/30","09:30",0.0,11.8,67.8,1007.8,287.2,0.6,1.1,286.7,0.07,6.1,10.9,"09:21:52",1
"19/03/30","09:40",0.0,11.8,67.0,1007.6,286.4,0.3,0.9,315.5,0.07,5.9,10.8,"09:30:02",1
"19/03/30","09:50",0.0,11.9,66.7,1007.6,287.7,1.1,1.3,278.1,0.05,5.9,11.1,"09:43:36",1
"19/03/30","10:00",0.0,12.1,63.7,1007.8,296.4,0.8,1.2,316.6,0.11,5.5,11.0,"09:56:16",1
"19/03/30","10:10",0.0,12.6,62.5,1007.4,281.1,0.7,1.1,277.2,0.16,5.7,11.1,"10:03:04",1
"19/03/30","10:20",0.0,13.0,61.5,1007.6,288.4,0.6,1.3,261.4,0.15,5.8,11.2,"10:19:44",1
"19/03/30","10:30",0.0,13.0,60.0,1007.8,230.8,0.5,1.3,278.2,0.07,5.5,11.2,"10:20:08",1
"19/03/30","10:40",0.0,13.1,60.7,1007.4,222.4,0.3,1.6,239.3,0.08,5.7,11.2,"10:37:28",1
"19/03/30","10:50",0.0,13.3,59.3,1007.1,238.1,0.7,1.6,249.6,0.12,5.6,11.6,"10:46:08",1
"19/03/30","11:00",0.0,13.4,58.7,1007.1,282.8,1.2,2.1,331.9,0.03,5.5,11.4,"10:59:12",1
"19/03/30","11:10",0.0,13.1,59.3,1007.4,325.1,2.0,3.3,337.8,0.02,5.4,11.5,"11:00:56",1
"19/03/30","11:20",0.0,13.1,60.8,1007.6,327.3,1.8,2.2,330.9,0.04,5.7,11.5,"11:12:32",1
"19/03/30","11:30",0.0,13.2,61.3,1007.1,290.9,1.1,1.4,306.2,0.07,6.0,11.6,"11:27:04",1
"19/03/30","11:40",0.0,13.6,61.9,1006.9,320.8,1.5,2.1,325.9,0.05,6.5,11.6,"11:34:56",1
"19/03/30","11:50",0.0,12.9,69.7,1006.9,328.9,2.5,4.2,337.8,0.10,7.5,11.5,"11:49:20",1
"19/03/30","12:00",0.0,13.0,71.5,1006.2,312.3,2.2,3.4,333.7,0.06,8.0,11.6,"11:50:08",1
"19/03/30","12:10",0.0,13.0,71.9,1006.0,290.4,1.1,1.8,310.4,0.09,8.1,11.6,"12:00:24",1
"19/03/30","12:20",0.0,13.6,70.0,1005.7,285.5,1.0,1.4,270.6,0.12,8.3,11.7,"12:10:16",1
"19/03/30","12:30",0.0,13.6,71.6,1005.7,304.1,1.7,2.9,319.5,0.17,8.6,11.8,"12:26:32",1
"19/03/30","12:40",0.0,13.7,73.4,1005.7,318.4,2.6,4.8,318.0,0.12,9.1,11.9,"12:36:00",1
"19/03/30","12:50",0.0,13.7,74.3,1005.2,329.6,2.8,4.0,332.1,0.21,9.3,12.0,"12:41:36",1
"19/03/30","13:00",0.0,13.8,73.1,1005.0,319.8,3.0,4.5,321.3,0.22,9.1,12.0,"12:53:20",1
"19/03/30","13:10",0.0,13.8,74.5,1004.8,316.9,3.0,4.0,336.2,0.13,9.4,12.0,"13:09:28",1
"19/03/30","13:20",0.0,13.3,75.4,1004.8,321.4,2.8,4.0,319.6,0.04,9.1,12.0,"13:13:52",1
"19/03/30","13:30",0.0,13.0,78.1,1005.0,315.0,2.8,4.7,334.3,0.03,9.3,12.1,"13:28:08",1
"19/03/30","13:40",0.0,12.8,80.0,1005.0,323.0,3.2,5.1,339.7,0.05,9.5,11.9,"13:39:28",1
"19/03/30","13:50",0.2,12.7,82.4,1004.5,332.5,3.5,5.2,333.2,0.02,9.8,12.0,"13:41:12",1
"19/03/30","14:00",0.0,12.8,84.4,1004.3,327.2,3.9,7.7,340.8,0.04,10.3,12.0,"13:52:08",1
"19/03/30","14:10",0.0,13.1,84.4,1004.3,291.8,2.1,4.4,332.2,0.06,10.6,11.9,"14:01:04",1
"19/03/30","14:20",0.0,13.0,83.2,1004.8,294.4,2.0,5.1,309.2,0.07,10.3,12.1,"14:18:32",1
"19/03/30","14:30",0.0,13.2,79.6,1005.0,301.6,2.6,4.2,309.0,0.03,9.8,12.0,"14:25:12",1
"19/03/30","14:40",0.2,13.1,78.3,1005.0,298.8,2.3,4.8,340.9,0.04,9.5,11.9,"14:32:08",1
"19/03/30","14:50",0.0,13.1,79.2,1004.8,312.3,2.2,4.5,345.5,0.08,9.6,12.1,"14:44:00",1
"19/03/30","15:00",0.0,13.2,78.6,1004.3,314.1,2.5,4.5,333.2,0.06,9.6,12.1,"14:54:24",1
"19/03/30","15:10",0.0,12.8,78.6,1004.8,312.1,2.5,6.0,333.8,0.01,9.2,11.9,"15:07:36",1
"19/03/30","15:20",0.2,12.7,78.8,1004.8,310.1,3.0,5.9,320.5,0.03,9.2,11.9,"15:16:08",1
"19/03/30","15:30",0.2,12.4,80.3,1004.5,322.4,3.6,6.6,324.1,0.05,9.1,12.0,"15:28:28",1
"19/03/30","15:40",0.2,12.3,81.6,1005.0,310.6,3.5,5.7,325.9,0.02,9.3,12.0,"15:30:40",1
"19/03/30","15:50",0.2,12.1,82.9,1004.8,293.0,2.1,4.0,326.5,0.01,9.3,12.1,"15:42:56",1
"19/03/30","16:00",0.2,12.2,83.9,1004.5,301.9,1.8,3.3,336.1,0.02,9.6,12.0,"15:56:08",1
"19/03/30","16:10",0.0,12.1,84.8,1004.5,359.3,0.7,2.2,350.3,0.00,9.7,11.9,"16:00:48",1
"19/03/30","16:20",0.2,12.1,85.6,1004.1,23.6,0.7,1.4,107.8,0.01,9.8,11.8,"16:17:36",1
"19/03/30","16:30",0.0,11.9,86.5,1004.1,328.2,1.3,2.1,327.6,0.00,9.8,11.8,"16:22:24",1
"19/03/30","16:40",0.0,11.8,87.3,1004.3,333.3,1.5,2.4,320.3,0.00,9.8,11.6,"16:31:36",1
"19/03/30","16:50",0.0,11.7,88.4,1004.1,298.4,1.5,2.1,334.4,0.00,9.9,11.8,"16:40:16",1
"19/03/30","17:00",0.2,11.6,89.3,1003.8,285.0,1.3,2.6,330.2,0.00,9.9,11.8,"16:59:28",1
"19/03/30","17:10",0.4,11.4,90.1,1004.3,330.7,2.1,4.0,337.1,0.00,9.9,11.8,"17:03:36",1
"19/03/30","17:20",0.4,11.3,90.9,1004.8,327.2,2.3,3.2,316.6,0.00,9.9,11.7,"17:16:26",1
"19/03/30","17:30",0.4,11.2,91.4,1004.5,333.8,2.0,3.6,332.8,0.00,9.9,11.8,"17:26:40",1
"19/03/30","17:40",0.4,11.2,92.3,1003.8,342.6,0.5,1.7,309.5,0.00,10.0,11.7,"17:30:08",1
"19/03/30","17:50",0.4,11.2,92.5,1004.1,346.9,0.8,2.2,311.5,0.00,10.1,11.7,"17:47:04",1
"19/03/30","18:00",0.4,11.2,93.0,1004.1,176.7,0.6,1.6,140.7,0.00,10.2,11.7,"17:51:52",1
"19/03/30","18:10",0.0,11.2,93.3,1004.3,233.1,0.8,1.9,203.8,0.00,10.2,11.6,"18:00:24",1
"19/03/30","18:20",0.2,11.0,93.4,1004.3,193.4,0.7,1.2,230.8,0.00,10.0,11.4,"18:10:08",1
"19/03/30","18:30",0.0,11.0,93.9,1004.8,229.5,0.5,1.1,139.0,0.00,10.1,11.5,"18:20:56",1
"19/03/30","18:40",0.0,10.9,94.0,1004.8,304.2,1.2,1.6,325.5,0.00,10.0,11.6,"18:30:40",1
"19/03/30","18:50",0.0,11.1,94.2,1004.8,320.9,2.2,3.4,334.3,0.00,10.2,11.6,"18:43:52",1
"19/03/30","19:00",0.0,11.0,94.4,1005.0,319.3,1.6,2.4,310.4,0.00,10.2,11.6,"18:54:10",1
"19/03/30","19:10",0.0,11.0,94.6,1005.2,287.1,1.6,2.4,266.6,0.00,10.2,11.5,"19:09:54",1
"19/03/30","19:20",0.2,10.9,94.7,1004.5,285.8,1.3,2.6,304.9,0.00,10.1,11.5,"19:12:56",1
"19/03/30","19:30",0.0,10.9,94.9,1004.8,323.0,0.3,1.8,329.9,0.00,10.2,11.4,"19:20:16",1
"19/03/30","19:40",0.2,10.9,95.1,1004.8,286.0,0.8,1.4,307.7,0.00,10.2,11.6,"19:37:12",1
"19/03/30","19:50",0.0,10.9,95.2,1004.5,299.7,1.2,1.8,318.7,0.00,10.2,11.5,"19:44:08",1
"19/03/30","20:00",0.0,10.8,95.3,1004.3,312.9,1.1,1.7,346.7,0.00,10.1,11.4,"19:57:14",1
"19/03/30","20:10",0.0,10.8,95.6,1005.0,279.7,1.3,2.6,237.2,0.00,10.2,11.4,"20:08:18",1
"19/03/30","20:20",0.6,10.8,95.6,1004.5,330.1,0.3,1.2,348.8,0.00,10.2,11.6,"20:13:20",1
"19/03/30","20:30",0.4,10.8,95.7,1004.1,334.0,0.6,1.2,333.9,0.00,10.2,11.3,"20:28:26",1
"19/03/30","20:40",0.8,10.7,95.8,1004.8,268.7,1.3,2.7,310.4,0.00,10.1,11.4,"20:35:24",1
"19/03/30","20:50",0.4,10.7,96.1,1004.5,116.9,1.0,2.1,120.9,0.00,10.1,11.4,"20:44:08",1
"19/03/30","21:00",0.0,10.7,96.0,1005.0,320.5,1.1,2.5,319.0,0.00,10.1,11.5,"20:56:00",1
"19/03/30","21:10",0.0,10.6,96.3,1005.0,327.5,0.5,1.2,331.5,0.00,10.1,11.2,"21:02:16",1
"19/03/30","21:20",0.0,10.6,96.4,1004.5,156.9,0.5,2.1,152.8,0.00,10.1,11.3,"21:16:40",1
"19/03/30","21:30",0.2,10.5,96.2,1004.3,328.1,0.8,1.7,348.2,0.00,10.0,11.4,"21:23:52",1
"19/03/30","21:40",0.2,10.5,96.7,1004.3,305.4,1.1,1.7,319.5,0.00,10.0,11.3,"21:33:20",1
"19/03/30","21:50",0.4,10.5,96.8,1003.8,246.2,0.3,1.0,328.5,0.00,10.1,11.2,"21:40:32",1
"19/03/30","22:00",0.0,10.6,96.8,1003.8,7.0,0.6,1.7,332.4,0.00,10.2,11.3,"21:54:52",1
"19/03/30","22:10",0.0,10.6,96.9,1003.8,297.9,1.1,1.8,318.1,0.00,10.2,11.2,"22:01:36",1
"19/03/30","22:20",0.0,10.5,96.9,1003.8,315.1,1.3,1.8,311.1,0.00,10.1,10.9,"22:18:24",1
"19/03/30","22:30",0.0,10.4,97.0,1003.6,308.3,1.1,1.7,328.8,0.00,10.0,11.3,"22:20:08",1
"19/03/30","22:40",0.0,10.3,97.1,1003.8,280.2,1.2,1.7,267.3,0.00,9.9,11.3,"22:35:44",1
"19/03/30","22:50",0.0,10.4,97.2,1004.3,271.7,1.2,1.7,265.9,0.00,10.0,11.2,"22:42:48",1
"19/03/30","23:00",0.0,10.3,97.2,1004.1,298.0,0.8,1.3,353.1,0.00,9.9,11.2,"22:59:44",1
"19/03/30","23:10",0.0,10.0,97.3,1003.1,354.1,1.5,2.8,1.1,0.00,9.6,11.2,"23:01:36",1
"19/03/30","23:20",0.0,9.9,97.4,1003.8,309.7,0.8,1.3,316.8,0.00,9.5,11.3,"23:16:00",1
"19/03/30","23:30",0.0,9.9,97.8,1003.8,302.0,0.8,1.1,345.2,0.00,9.6,11.2,"23:28:16",1
"19/03/30","23:40",0.0,9.9,97.5,1003.6,343.5,1.5,3.2,348.8,0.00,9.6,11.0,"23:39:04",1
"19/03/30","23:50",0.0,9.8,97.7,1003.6,325.2,1.1,1.9,334.1,0.00,9.5,11.2,"23:40:40",1
"19/03/30","24:00",0.0,9.7,97.6,1003.1,315.3,1.0,1.7,327.4,0.00,9.4,11.3,"23:50:32",1
